Вернуться в каталог

CHINASAT 1C

АктивенСвязьGEO
NORAD 41103·PAYLOAD·🇨🇳 China

Запущен Dec 9, 2015 с Xichang Satellite Launch Center

Loading…

TLE

СвежийSource: Space-Track

Эпоха: Sep 14, 2026, 05:19 UTC

1 41103U 15073A   26257.22186407 -.00000080  00000-0  00000-0 0  9996
2 41103   7.3219  67.8710 0006263 175.5412 205.4989  0.99169713 39435

Отслеживайте CHINASAT 1C в реальном времени с AllMySat

Download on the App Store